www.pogodaiklimat.ru

Погода и климат >> Архив погоды >> Ирак >> Басра


ПОГОДА в Басре

  • Прогноз погоды в Басре
  • Монитор погоды в Басре

АРХИВ ПОГОДЫ в Басре

Время (UTC), дата Ветер
(напр.,м/с)
 
Видим.   Явления Облачность Т
(С)
Тd
(С)
f
(%)
Тe
(С)
Тes
(С)
Комфортность P
(гПа)
Po
(гПа)
Тmin
(С)
Tmax
(С)
R
(мм)
R24
(мм)
S
(см)
09 20.05 ЮВ 3 10 км 1/1 1200 м
[Cu hum]
+38.2 +15.3 26 +40 +56 опасность
солнечного
удара
1009.2 1009.0
12 20.05 ЮВ 2 10 км 1/1 1200 м
[Cu hum Ci fib]
+39.0 +13.2 22 +39 +50 очень
жарко
1007.1 1006.9
15 20.05 ЮВ 5 10 км 8/0
[As op]
+34.8 +13.7 28 +36 +36 душно 1006.2 1006.0
18 20.05 ЮВ 3 10 км 3/0
[Ci sp]
+32.0 +16.6 40 +35 +35 очень
душно
1008.4 1008.2 +40.0
21 20.05 СВ 7 10 км 1/0
[Ci fib]
+28.2 +13.9 41 +30 +30 жарко 1010.8 1010.6
00 21.05 СВ 3 10 км ясно +28.2 +12.1 37 +29 +29 жарко 1009.1 1008.9
03 21.05 штиль 0 10 км 1/0
[Ci fib]
+26.6 +15.9 52 +30 +31 душно 1009.8 1009.6
06 21.05 ЮЗ 2 10 км ясно +33.0 +13.7 31 +34 +48 очень
жарко
1011.0 1010.8 +25.6
09 21.05 ЮВ 2 10 км 3/3 900 м
[Cu hum]
+38.0 +15.2 26 +39 +54 опасность
солнечного
удара
1010.4 1010.2
12 21.05 С 4 10 км ясно +40.4 +14.1 21 +41 +48 опасность
перегрева
1008.5 1008.3
15 21.05 С 3 10 км 3/0
[Ac trans]
+37.6 +12.9 23 +38 +38 очень
жарко
1007.7 1007.5
18 21.05 ЮЗ 2 10 км 8/0
[Cs]
+34.0 +16.9 36 +37 +37 очень
душно
1010.1 1009.9 +41.0
21 21.05 З 3 10 км 8/0
[Cs]
+32.2 +11.5 28 +32 +32 жарко 1011.0 1010.8
03 22.05 СЗ 3 10 км ясно +28.0 +12.7 39 +29 +30 жарко 1010.4 1010.2
06 22.05 СЗ 4 10 км ясно +36.0 +10.6 21 +35 +44 очень
жарко
1011.2 1011.0 +27.5
09 22.05 СЗ 4 10 км ясно +41.5 +8.0 13 +39 +54 опасность
солнечного
удара
1010.0 1009.8
15 22.05 СЗ 4 10 км ясно +38.2 +11.3 20 +37 +38 очень
жарко
1007.7 1007.5
18 22.05 С 3 10 км ясно +35.2 +12.6 26 +35 +35 очень
жарко
1008.5 1008.3 +43.0
21 22.05 штиль 0 10 км ясно +33.0 +12.6 29 +33 +33 жарко 1008.3 1008.1
00 23.05 С 2 10 км ясно +30.5 +13.8 36 +32 +32 жарко 1008.0 1007.8
03 23.05 штиль 0 10 км ясно +28.2 +12.1 37 +29 +31 жарко 1008.6 1008.4
06 23.05 СЗ 2 10 км ясно +37.4 +27.6 58 +57 +70 опасность
перегрева
1009.1 1008.9
09 23.05 СЗ 3 10 км ясно +40.6 +7.7 14 +38 +56 опасность
солнечного
удара
1008.5 1008.3
18 23.05 СЗ 2 10 км ясно +35.2 +12.9 26 +35 +35 очень
жарко
1007.9 1007.7 +42.0
21 23.05 СЗ 2 10 км ясно +33.0 +15.8 36 +36 +36 очень
душно
1009.8 1009.6
00 24.05 З 2 10 км ясно +30.0 +19.0 52 +35 +35 очень
душно
1006.8 1006.6
09 24.05 СЗ 2 10 км ясно +42.4 +13.0 18 +42 +64 опасность
перегрева
1007.7 1007.5
12 24.05 СЗ 2 10 км ясно +44.0 +9.3 13 +42 +54 опасность
перегрева
1006.5 1006.3
15 24.05 СЗ 2 10 км ясно +41.4 +12.3 18 +41 +41 опасность
перегрева
1006.2 1006.0
18 24.05 штиль 0 10 км ясно +36.6 +14.1 26 +37 +37 очень
жарко
1007.5 1007.3 +44.8
00 25.05 штиль 0 10 км ясно +31.5 +10.1 27 +31 +31 жарко 1007.7 1007.5
06 25.05 СЗ 2 10 км ясно +37.0 +12.4 23 +37 +50 очень
жарко
1010.0 1009.8 +28.8
09 25.05 ЮЗ 3 10 км ясно +44.2 +10.3 14 +43 +61 опасность
перегрева
1008.9 1008.7
12 25.05 СЗ 2 10 км ясно +46.4 +7.3 10 +44 +56 опасность
перегрева
1007.0 1006.8
15 25.05 СЗ 3 10 км ясно +43.0 +9.6 14 +41 +42 опасность
перегрева
1005.9 1005.7
18 25.05 штиль 0 10 км ясно +36.8 +12.5 23 +37 +37 очень
жарко
1006.9 1006.7 +47.0
21 25.05 штиль 0 10 км ясно +30.6 +15.5 40 +33 +33 душно 1007.1 1006.9
00 26.05 ЮВ 3 10 км ясно +31.0 +6.2 21 +29 +29 жарко 1006.5 1006.3
03 26.05 штиль 0 10 км ясно +29.6 +15.8 43 +32 +34 душно 1006.8 1006.6
06 26.05 З 4 10 км ясно +38.6 +14.5 24 +39 +49 душно 1007.9 1007.7 +29.0
09 26.05 СЗ 3 10 км ясно +46.0 +9.8 12 +44 +63 опасность
перегрева
1006.9 1006.7
12 26.05 СЗ 4 10 км 3/3 900 м
[Cu hum]
+46.8 +10.3 12 +45 +51 опасность
перегрева
1004.6 1004.4
15 26.05 СЗ 3 10 км 3/3 900 м
[Cu med, cong]
+44.0 +5.0 10 +41 +42 опасность
перегрева
1004.4 1004.2
18 26.05 СЗ 2 10 км ясно +39.0 +13.2 22 +39 +39 очень
жарко
1006.0 1005.8 +47.5
21 26.05 Ю 3 10 км ясно +36.0 +14.4 28 +37 +37 душно 1006.3 1006.1
00 27.05 ЮВ 3 10 км ясно +33.0 +15.5 35 +35 +35 душно 1005.8 1005.6
06 27.05 С 3 10 км ясно +36.8 +17.1 31 +39 +51 опасность
солнечного
удара
1008.2 1008.0 +30.5

 

Местоположение метеостанции Басра (Ирак): широта 30.57 долгота 47.78 высота над уровнем моря 2 м.

В архиве по умолчанию представлена погода в Басре за последнюю неделю. Архивные данные за месяц целиком и за предыдущие месяцы, начиная с января 2011 года, Вы можете получить, выбрав интересующий диапазон дат из раскрывающегося списка и нажав кнопку "Ввод!".


*Определитесь, кто Вы:
робот инопланетянин человек

Внимание! Время в таблицах - всемирное. Для получения местного времени необходимо прибавить поправку, которая равна 3 ч.

Смотрите также архив погоды в соседних городах и на ближайших метеорологических станциях:

Погода в Басре аэропорт (Ирак) (6 км)
Погода в Абадане (Иран) (50 км)
Погода в Абдали (Кувейт) (55 км)
Погода на Метеостанции Sabriyah (Кувейт) (91 км)
Погода на Метеостанции Mintribah (Кувейт) (92 км)
Погода в Эль-Фао (Ирак) (95 км)
Погода на Бубияне (Кувейт) (106 км)
Погода на Метеостанции Jal Aliyah (Кувейт) (108 км)
Погода в Ахвазе (Иран) (120 км)
Погода Остров Файлака (Кувейт) (131 км)

Пояснения к столбцам:

Ветер - указаны скорость ветра в м/с - средняя за 10 мин, порывы в срок и между сроками (в фигурных скобках) и направление, откуда дует ветер: С - северный, СВ - северо-восточный, В - восточный, ЮВ - юго-восточный, Ю - южный, ЮЗ - юго-западный, З - западный, СЗ - северо-западный.
Видимость - горизонтальная дальность видимости в метрах или километрах. При видимости от 1 до 10 км при отсутствии осадков обычно наблюдается дымка, при ухудшении видимости до 1 км и менее - туман. В сухую погоду видимость может ухудшаться дымом, пылью или мглою.
Явления - указаны атмосферные явления, наблюдавшиеся в срок или в последний час перед сроком; фигурными скобками обозначены явления, наблюдавшиеся между сроками (за 1-3 часа до срока); квадратными скобками обозначены град или гололедные отложения с указанием их диаметра в мм.
Облачность - указаны через наклонную черту общая и нижняя облачность в баллах и высота нижней границы облаков в метрах; квадратными скобками обозначены формы облаков: Ci - перистые, Cs - перисто-слоистые, Cc - перисто-кучевые, Ac - высококучевые, As - высокослоистые, Sc - слоисто-кучевые, Ns - слоисто-дождевые, Cu - кучевые, Cb - кучево-дождевые. Подробнее классификацию облаков см. в Атласе облаков (PDF).
T - Температура воздуха - температура, измеренная на высоте 2 м над землей.
Td - Температура точки росы - температура, при понижении до которой содержащийся в воздухе водяной пар достигнет насыщения.
f - Относительная влажность воздуха - влажноcть воздуха, измеренная на высоте 2 м над землей.
Te - Эффективная температура - температура, которую ощущает одетый по сезону человек в тени. Характеристика душности погоды. При расчете учитывается влияние влажности воздуха и скорости ветра на теплоощущения человека.
Tes - Эффективная температура на солнце - температура, которую ощущает человек, с поправкой на солнечный нагрев. Характеристика знойности погоды. Зависит от высоты солнца над горизонтом, облачности и скорости ветра. Ночью, в пасмурную погоду, а также при ветре 12 м/с и более поправка равна нулю.
P - Атмосферное давление - приведенное к уровню моря атмосферное давление.
Po - Атмосферное давление - измеренное на уровне метеостанции атмосферное давление.
Tmin - Минимальная температура - минимум температуры воздуха на высоте 2 м над землей.
Tmax - Максимальная температура - максимум температуры воздуха на высоте 2 м над землей.
R - Количество осадков - Количество выпавших осадков за период времени, мм. При наведении курсора мыши на число - период времени, за который выпало указанное количество осадков.
R24 - Количество осадков - Количество выпавших осадков за 24 часа, мм.
S - Снежный покров - Высота снежного покрова, см. При наведении курсора мыши на число - состояние снежного покрова и степень покрытия местности в баллах.